CW3860 Weather Reports


Display with metric or nautical units.
time (UTC)temp
F
wind
direction
speed
MPH
gust
MPH
rain 1hr
in
rain 24hr
in
rain mn
in
humidity
%
barometer
mb
20260906031534 75 338 0.0 1.0 0.00 0.00 0.00 64 1017.3
20260906031034 75 338 1.0 1.0 0.00 0.00 0.00 64 1017.3
20260906030533 75 338 0.0 0.0 0.00 0.00 0.00 65 1017.2
20260906030034 75 337 0.0 0.0 0.00 0.00 0.00 64 1017.3
20260906025534 75 338 0.0 1.0 0.00 0.00 0.00 64 1017.2
20260906025034 75 338 0.0 3.0 0.00 0.00 0.00 64 1017.3
20260906024534 75 315 0.0 0.0 0.00 0.00 0.00 65 1017.2
20260906024034 76 315 0.0 2.0 0.00 0.00 0.00 65 1017.2
20260906023534 76 315 0.0 0.0 0.00 0.00 0.00 65 1017.2
20260906023034 76 315 0.0 0.0 0.00 0.00 0.00 65 1017.2
20260906022534 75 315 0.0 0.0 0.00 0.00 0.00 65 1017.2
20260906022034 75 315 0.0 1.0 0.00 0.00 0.00 65 1017.2
20260906021534 75 315 0.0 0.0 0.00 0.00 0.00 65 1017.2
20260906021034 75 315 0.0 1.0 0.00 0.00 0.00 64 1017.2
20260906020531 76 315 0.0 2.0 0.00 0.00 0.00 64 1017.1
20260906020030 76 316 1.0 2.0 0.00 0.00 0.00 63 1017.1
20260906015531 76 319 1.0 1.0 0.00 0.00 0.00 63 1017.2
20260906015030 77 319 0.0 1.0 0.00 0.00 0.00 62 1017.2
20260906014531 77 320 0.0 2.0 0.00 0.00 0.00 62 1017.2
20260906014030 77 239 0.0 1.0 0.00 0.00 0.00 61 1017.2
20260906013530 77 205 0.0 1.0 0.00 0.00 0.00 61 1017.2
20260906013030 77 216 0.0 0.0 0.00 0.00 0.00 62 1017.2
20260906012531 77 216 0.0 1.0 0.00 0.00 0.00 62 1017.2
20260906012031 77 216 0.0 2.0 0.00 0.00 0.00 62 1017.2
20260906011534 76 226 1.0 1.0 0.00 0.00 0.00 63 1017.3
20260906011030 76 298 0.0 1.0 0.00 0.00 0.00 63 1017.3
20260906010530 76 298 0.0 1.0 0.00 0.00 0.00 63 1017.3
20260906010030 77 300 0.0 1.0 0.00 0.00 0.00 63 1017.2
20260906005531 77 299 0.0 1.0 0.00 0.00 0.00 63 1017.3
20260906005031 77 317 0.0 1.0 0.00 0.00 0.00 62 1017.2
20260906004530 77 317 1.0 2.0 0.00 0.00 0.00 62 1017.2
20260906004031 78 261 0.0 1.0 0.00 0.00 0.00 62 1017.1
20260906003531 78 261 0.0 1.0 0.00 0.00 0.00 62 1017.1
20260906003030 78 341 0.0 1.0 0.00 0.00 0.00 62 1017.1
20260906002530 78 341 0.0 1.0 0.00 0.00 0.00 61 1017.1
20260906002033 79 341 0.0 1.0 0.00 0.00 0.00 60 1017.2
20260906001531 79 341 0.0 1.0 0.00 0.00 0.00 60 1017.1
20260906001033 79 341 1.0 1.0 0.00 0.00 0.00 59 1017.2
20260906000531 79 98 0.0 1.0 0.00 0.00 0.00 58 1017.1
20260906000033 79 141 2.0 2.0 0.00 0.00 0.00 58 1017.1
20260905235531 78 121 1.0 3.0 0.00 0.00 0.00 59 1017.1
20260905235031 77 213 2.0 3.0 0.00 0.00 0.00 62 1017.2
20260905234531 77 194 2.0 3.0 0.00 0.00 0.00 63 1017.2
20260905234031 77 307 0.0 1.0 0.00 0.00 0.00 64 1017.2
20260905233531 77 307 0.0 1.0 0.00 0.00 0.00 64 1017.2
20260905233034 77 308 0.0 1.0 0.00 0.00 0.00 65 1017.2
20260905232532 77 307 0.0 2.0 0.00 0.00 0.00 65 1017.1
20260905232031 77 307 0.0 1.0 0.00 0.00 0.00 67 1017.1
20260905231534 77 308 0.0 1.0 0.00 0.00 0.00 68 1017.2
20260905231031 77 308 0.0 1.0 0.00 0.00 0.00 70 1017.2
20260905230531 77 307 0.0 1.0 0.00 0.00 0.00 70 1017.2
20260905230031 77 307 0.0 0.0 0.00 0.00 0.00 71 1017.2
20260905225531 77 308 0.0 0.0 0.00 0.00 0.00 71 1017.3
20260905225031 77 308 0.0 1.0 0.00 0.00 0.00 71 1017.3
20260905224531 77 307 0.0 1.0 0.00 0.00 0.00 72 1017.3
20260905224031 77 304 0.0 2.0 0.00 0.00 0.00 73 1017.3
20260905223531 78 300 0.0 1.0 0.00 0.00 0.00 74 1017.3
20260905223032 78 290 0.0 1.0 0.00 0.00 0.00 74 1017.3
20260905222534 79 263 0.0 1.0 0.00 0.00 0.00 75 1017.3
20260905222032 79 257 0.0 1.0 0.00 0.00 0.00 76 1017.3
20260905221531 79 257 0.0 1.0 0.00 0.00 0.00 76 1017.2
20260905221031 79 256 0.0 0.0 0.00 0.00 0.00 77 1017.1
20260905220532 79 281 0.0 0.0 0.00 0.00 0.00 77 1017.2
20260905220034 79 281 0.0 0.0 0.00 0.00 0.00 76 1017.2
20260905215534 80 281 0.0 1.0 0.00 0.00 0.00 76 1017.2
20260905215031 80 226 0.0 0.0 0.00 0.00 0.00 76 1017.1
20260905214531 80 229 0.0 1.0 0.00 0.00 0.00 77 1017.1
20260905214031 80 229 0.0 1.0 0.00 0.00 0.00 77 1017.1
20260905213532 80 229 1.0 2.0 0.00 0.00 0.00 78 1017.1
20260905213031 80 229 0.0 1.0 0.00 0.00 0.00 78 1017.2
20260905212531 80 229 0.0 1.0 0.00 0.00 0.00 79 1017.2
20260905212034 81 229 0.0 1.0 0.00 0.00 0.00 79 1017.2
20260905211531 81 229 0.0 1.0 0.00 0.00 0.00 79 1017.2
20260905211034 81 229 0.0 1.0 0.00 0.00 0.00 79 1017.2
20260905210532 81 229 0.0 1.0 0.00 0.00 0.00 79 1017.2
20260905210031 81 244 0.0 1.0 0.00 0.00 0.00 79 1017.2
20260905205532 80 256 0.0 0.0 0.00 0.00 0.00 79 1017.2
20260905205031 80 296 0.0 1.0 0.00 0.00 0.00 79 1017.2
20260905204531 80 246 0.0 1.0 0.00 0.00 0.00 79 1017.2
20260905204031 80 322 0.0 1.0 0.00 0.00 0.00 79 1017.2
20260905203531 80 321 0.0 1.0 0.00 0.00 0.00 79 1017.2
20260905203031 80 321 0.0 1.0 0.00 0.00 0.00 79 1017.2
20260905202531 80 321 1.0 1.0 0.00 0.00 0.00 79 1017.2
20260905202035 80 321 0.0 1.0 0.00 0.00 0.00 79 1017.1
20260905201531 80 321 1.0 2.0 0.00 0.00 0.00 79 1017.2
20260905201031 80 298 0.0 1.0 0.00 0.00 0.00 79 1017.1
20260905200532 80 298 0.0 1.0 0.00 0.00 0.00 79 1017.1
20260905200031 80 298 0.0 2.0 0.00 0.00 0.00 78 1017.0
20260905195531 81 325 1.0 2.0 0.00 0.00 0.00 78 1017.0
20260905195031 81 306 1.0 1.0 0.00 0.00 0.00 78 1016.9
20260905194531 82 302 1.0 1.0 0.00 0.00 0.00 79 1017.0
20260905194031 82 215 0.0 0.0 0.00 0.00 0.00 79 1016.9
20260905193532 83 215 0.0 0.0 0.00 0.00 0.00 79 1016.9
20260905193034 83 215 0.0 1.0 0.00 0.00 0.00 79 1016.9
20260905192531 83 215 0.0 0.0 0.00 0.00 0.00 78 1016.8
20260905192031 83 215 0.0 1.0 0.00 0.00 0.00 78 1016.8
20260905191532 83 215 0.0 1.0 0.00 0.00 0.00 78 1016.7
20260905191031 83 216 0.0 1.0 0.00 0.00 0.00 78 1016.7
20260905190532 83 216 0.0 1.0 0.00 0.00 0.00 77 1016.7
20260905190031 83 215 0.0 2.0 0.00 0.00 0.00 77 1016.7
20260905185531 83 202 0.0 0.0 0.00 0.00 0.00 77 1016.6
20260905185031 83 202 0.0 1.0 0.00 0.00 0.00 77 1016.6
20260905184534 83 202 0.0 1.0 0.00 0.00 0.00 77 1016.6
20260905184031 83 202 0.0 2.0 0.00 0.00 0.00 76 1016.5
20260905183531 84 210 0.0 0.0 0.00 0.00 0.00 76 1016.4
20260905183031 84 211 0.0 1.0 0.00 0.00 0.00 76 1016.4
20260905182531 84 210 0.0 0.0 0.00 0.00 0.00 76 1016.3
20260905182032 84 210 0.0 1.0 0.00 0.00 0.00 75 1016.3
20260905181531 84 209 0.0 1.0 0.00 0.00 0.00 75 1016.2
20260905181031 84 209 0.0 2.0 0.00 0.00 0.00 75 1016.2
20260905180531 84 191 0.0 2.0 0.00 0.00 0.00 76 1016.2
20260905180034 84 162 0.0 3.0 0.00 0.00 0.00 76 1016.2
20260905175531 85 101 2.0 3.0 0.00 0.00 0.00 76 1016.1
20260905175031 85 101 1.0 1.0 0.00 0.00 0.00 76 1016.1
20260905174532 85 86 0.0 1.0 0.00 0.00 0.00 75 1016.1
20260905174031 85 89 0.0 2.0 0.00 0.00 0.00 75 1016.0
20260905173534 85 121 0.0 2.0 0.00 0.00 0.00 74 1016.0
20260905173032 85 40 0.0 1.0 0.00 0.00 0.00 74 1016.0
20260905172532 85 65 0.0 1.0 0.00 0.00 0.00 74 1016.0
20260905172031 85 98 0.0 2.0 0.00 0.00 0.00 73 1016.0
20260905171532 86 112 0.0 3.0 0.00 0.00 0.00 73 1015.9
20260905171031 86 0 0.0 2.0 0.00 0.00 0.00 72 1016.0
20260905170534 86 355 1.0 2.0 0.00 0.00 0.00 72 1016.0
20260905170032 86 355 0.0 2.0 0.00 0.00 0.00 71 1016.0
20260905165531 86 5 0.0 2.0 0.00 0.00 0.00 71 1015.8
20260905165034 86 87 1.0 2.0 0.00 0.00 0.00 71 1015.9
20260905164532 86 98 1.0 2.0 0.00 0.00 0.00 70 1015.9
20260905164032 86 105 0.0 2.0 0.00 0.00 0.00 69 1015.7
20260905163532 86 140 0.0 3.0 0.00 0.00 0.00 69 1015.7
20260905163031 86 115 0.0 2.0 0.00 0.00 0.00 69 1015.8
20260905162532 87 117 0.0 4.0 0.00 0.00 0.00 67 1015.8
20260905162033 87 101 2.0 3.0 0.00 0.00 0.00 67 1015.8
20260905161532 87 13 1.0 2.0 0.00 0.00 0.00 66 1015.8
20260905161032 87 115 1.0 2.0 0.00 0.00 0.00 66 1015.8
20260905160532 87 104 1.0 2.0 0.00 0.00 0.00 66 1015.7
20260905160032 87 127 1.0 2.0 0.00 0.00 0.00 65 1015.8
20260905155532 87 94 0.0 3.0 0.00 0.00 0.00 65 1015.7
20260905155032 87 91 1.0 3.0 0.00 0.00 0.00 65 1015.7
20260905154532 87 103 1.0 2.0 0.00 0.00 0.00 65 1015.7
20260905154032 87 5 0.0 3.0 0.00 0.00 0.00 66 1015.7
20260905153535 87 0 1.0 2.0 0.00 0.00 0.00 66 1015.7
20260905153035 87 24 0.0 3.0 0.00 0.00 0.00 68 1015.7
20260905152532 87 108 1.0 3.0 0.00 0.00 0.00 67 1015.6
20260905152032 87 121 0.0 3.0 0.00 0.00 0.00 66 1015.6
20260905151532 88 113 1.0 3.0 0.00 0.00 0.00 67 1015.6
20260905151032 88 128 2.0 4.0 0.00 0.00 0.00 67 1015.6
20260905150535 88 94 2.0 4.0 0.00 0.00 0.00 67 1015.6
20260905150035 88 76 1.0 4.0 0.00 0.00 0.00 66 1015.5
20260905145532 88 80 3.0 4.0 0.00 0.00 0.00 66 1015.4
20260905145032 88 105 1.0 4.0 0.00 0.00 0.00 65 1015.5
20260905144532 88 126 2.0 4.0 0.00 0.00 0.00 63 1015.5
20260905144032 88 90 1.0 2.0 0.00 0.00 0.00 63 1015.6
20260905143532 88 37 1.0 3.0 0.00 0.00 0.00 62 1015.6
20260905143032 89 78 2.0 3.0 0.00 0.00 0.00 61 1015.5
20260905142532 89 65 1.0 3.0 0.00 0.00 0.00 62 1015.6
20260905142032 88 76 0.0 3.0 0.00 0.00 0.00 60 1015.7
20260905141532 88 91 1.0 4.0 0.00 0.00 0.00 60 1015.6
20260905141032 88 123 1.0 5.0 0.00 0.00 0.00 60 1015.6
20260905140535 88 90 3.0 5.0 0.00 0.00 0.00 62 1015.5
20260905140032 88 98 0.0 3.0 0.00 0.00 0.00 63 1015.5
20260905135532 88 122 1.0 6.0 0.00 0.00 0.00 64 1015.5
20260905135033 89 121 3.0 4.0 0.00 0.00 0.00 61 1015.6
20260905134532 89 79 2.0 4.0 0.00 0.00 0.00 62 1015.6
20260905134032 89 153 1.0 4.0 0.00 0.00 0.00 61 1015.7
20260905133532 89 123 0.0 4.0 0.00 0.00 0.00 61 1015.8
20260905133032 88 51 2.0 4.0 0.00 0.00 0.00 63 1015.8
20260905132532 89 91 2.0 4.0 0.00 0.00 0.00 63 1015.8
20260905132033 88 114 1.0 4.0 0.00 0.00 0.00 64 1015.8
20260905131535 89 122 1.0 5.0 0.00 0.00 0.00 65 1015.8
20260905131032 89 118 1.0 4.0 0.00 0.00 0.00 65 1015.8
20260905130532 89 136 1.0 3.0 0.00 0.00 0.00 65 1015.9
20260905130032 89 148 0.0 3.0 0.00 0.00 0.00 64 1016.0
20260905125535 89 90 2.0 3.0 0.00 0.00 0.00 65 1016.0
20260905125033 89 5 1.0 3.0 0.00 0.00 0.00 65 1016.0
20260905124532 89 299 1.0 3.0 0.00 0.00 0.00 63 1016.0
20260905124033 89 47 1.0 5.0 0.00 0.00 0.00 65 1016.0
20260905123533 89 67 3.0 3.0 0.00 0.00 0.00 65 1015.9
20260905123035 89 21 1.0 3.0 0.00 0.00 0.00 65 1015.9
20260905122532 89 86 2.0 3.0 0.00 0.00 0.00 65 1016.0
20260905122032 88 9 2.0 4.0 0.00 0.00 0.00 66 1016.1
20260905121532 89 5 2.0 4.0 0.00 0.00 0.00 64 1016.1
20260905121032 89 333 3.0 3.0 0.00 0.00 0.00 64 1016.2
20260905120532 88 306 2.0 3.0 0.00 0.00 0.00 64 1016.2
20260905120032 88 19 1.0 4.0 0.00 0.00 0.00 64 1016.2
20260905115533 88 106 1.0 3.0 0.00 0.00 0.00 63 1016.2
20260905115032 88 0 3.0 3.0 0.00 0.00 0.00 62 1016.2
20260905114532 88 110 1.0 4.0 0.00 0.00 0.00 62 1016.3
20260905114032 89 118 0.0 3.0 0.00 0.00 0.00 62 1016.2
20260905113532 89 155 2.0 3.0 0.00 0.00 0.00 63 1016.2
20260905113033 89 34 1.0 2.0 0.00 0.00 0.00 63 1016.3
20260905112535 89 17 1.0 3.0 0.00 0.00 0.00 64 1016.3
20260905112035 89 47 1.0 3.0 0.00 0.00 0.00 64 1016.2
20260905111532 89 161 1.0 3.0 0.00 0.00 0.00 65 1016.3
20260905111033 89 51 1.0 4.0 0.00 0.00 0.00 65 1016.3
20260905110533 89 26 0.0 4.0 0.00 0.00 0.00 64 1016.2
20260905110036 89 93 0.0 2.0 0.00 0.00 0.00 62 1016.2
20260905105532 89 13 1.0 3.0 0.00 0.00 0.00 61 1016.1
20260905105033 88 331 2.0 4.0 0.00 0.00 0.00 63 1016.1
20260905104532 89 292 2.0 5.0 0.00 0.00 0.00 63 1016.2
20260905104035 88 34 1.0 3.0 0.00 0.00 0.00 66 1016.1
20260905103533 88 96 0.0 5.0 0.00 0.00 0.00 68 1016.1
20260905103033 87 87 2.0 5.0 0.00 0.00 0.00 67 1016.1
20260905102532 87 71 0.0 5.0 0.00 0.00 0.00 66 1016.1
20260905102033 87 175 2.0 5.0 0.00 0.00 0.00 66 1016.0
20260905101533 87 167 3.0 6.0 0.00 0.00 0.00 66 1016.1
20260905101032 87 109 5.0 5.0 0.00 0.00 0.00 65 1016.1
20260905100533 87 93 1.0 3.0 0.00 0.00 0.00 64 1016.2
20260905100036 88 99 2.0 5.0 0.00 0.00 0.00 65 1016.1
20260905095532 87 101 5.0 5.0 0.00 0.00 0.00 64 1016.1
20260905095033 87 88 3.0 4.0 0.00 0.00 0.00 64 1016.2
20260905094532 87 104 1.0 5.0 0.00 0.00 0.00 64 1016.3
20260905094033 87 118 2.0 6.0 0.00 0.00 0.00 64 1016.2
20260905093533 88 132 2.0 5.0 0.00 0.00 0.00 64 1016.1
20260905093033 87 111 2.0 5.0 0.00 0.00 0.00 64 1016.1
20260905092536 87 66 2.0 6.0 0.00 0.00 0.00 64 1016.2
20260905092033 87 105 3.0 5.0 0.00 0.00 0.00 66 1016.2
20260905091533 87 95 3.0 5.0 0.00 0.00 0.00 65 1016.2
20260905091033 87 86 4.0 6.0 0.00 0.00 0.00 64 1016.2
20260905090533 87 102 3.0 5.0 0.00 0.00 0.00 64 1016.3
20260905090033 87 83 2.0 5.0 0.00 0.00 0.00 63 1016.2
20260905085533 87 123 1.0 4.0 0.00 0.00 0.00 62 1016.3
20260905085033 87 135 4.0 4.0 0.00 0.00 0.00 61 1016.3
20260905084533 87 117 1.0 5.0 0.00 0.00 0.00 60 1016.2
20260905084033 87 90 2.0 5.0 0.00 0.00 0.00 59 1016.2
20260905083536 87 140 3.0 6.0 0.00 0.00 0.00 58 1016.2
20260905083034 87 110 1.0 3.0 0.00 0.00 0.00 58 1016.2
20260905082533 87 105 2.0 6.0 0.00 0.00 0.00 57 1016.2
20260905082033 87 103 2.0 5.0 0.00 0.00 0.00 57 1016.1
20260905081533 87 128 4.0 5.0 0.00 0.00 0.00 55 1016.1
20260905081033 87 141 2.0 4.0 0.00 0.00 0.00 54 1016.1
20260905080536 87 101 4.0 5.0 0.00 0.00 0.00 52 1016.1
20260905080033 87 87 1.0 3.0 0.00 0.00 0.00 55 1016.1
20260905075533 86 128 1.0 4.0 0.00 0.00 0.00 55 1016.1
20260905075033 86 95 0.0 4.0 0.00 0.00 0.00 57 1016.1
20260905074536 86 106 4.0 4.0 0.00 0.00 0.00 58 1016.0
20260905074033 86 141 2.0 4.0 0.00 0.00 0.00 59 1016.0
20260905073534 86 235 1.0 6.0 0.00 0.00 0.00 56 1015.9
20260905073034 86 102 4.0 6.0 0.00 0.00 0.00 50 1015.9
20260905072533 86 105 1.0 4.0 0.00 0.00 0.00 48 1015.9
20260905072033 86 91 1.0 2.0 0.00 0.00 0.00 50 1015.9
20260905071536 87 93 0.0 2.0 0.00 0.00 0.00 49 1015.9
20260905071033 87 99 0.0 1.0 0.00 0.00 0.00 47 1015.9
20260905070534 89 119 1.0 1.0 0.00 0.00 0.00 45 1015.9
20260905070033 88 119 0.0 1.0 0.00 0.00 0.00 45 1015.8
20260905065533 88 119 0.0 1.0 0.00 0.00 0.00 43 1015.9
20260905065034 88 126 1.0 2.0 0.00 0.00 0.00 44 1015.9
20260905064533 88 260 0.0 0.0 0.00 0.00 0.00 45 1015.9
20260905064036 88 260 0.0 1.0 0.00 0.00 0.00 46 1015.9
20260905063534 87 260 0.0 1.0 0.00 0.00 0.00 46 1015.9
20260905063033 86 260 0.0 1.0 0.00 0.00 0.00 45 1015.8
20260905062533 85 260 1.0 1.0 0.00 0.00 0.00 46 1015.8
20260905062033 84 260 0.0 1.0 0.00 0.00 0.00 48 1015.7
20260905061533 84 260 0.0 1.0 0.00 0.00 0.00 49 1015.8
20260905061034 83 260 0.0 1.0 0.00 0.00 0.00 51 1015.7
20260905060533 82 260 0.0 1.0 0.00 0.00 0.00 54 1015.7
20260905060034 81 260 0.0 1.0 0.00 0.00 0.00 53 1015.7
20260905055533 80 260 0.0 1.0 0.00 0.00 0.00 53 1015.7
20260905055034 79 260 0.0 1.0 0.00 0.00 0.00 53 1015.7
20260905054533 79 259 0.0 1.0 0.00 0.00 0.00 53 1015.7
20260905054033 78 331 0.0 0.0 0.00 0.00 0.00 55 1015.7
20260905053533 77 330 0.0 1.0 0.00 0.00 0.00 53 1015.7
20260905053033 76 331 0.0 1.0 0.00 0.00 0.00 54 1015.7
20260905052533 76 331 1.0 1.0 0.00 0.00 0.00 55 1015.7
20260905052033 75 331 0.0 1.0 0.00 0.00 0.00 56 1015.6
20260905051533 75 331 0.0 1.0 0.00 0.00 0.00 57 1015.6
20260905051033 74 331 1.0 1.0 0.00 0.00 0.00 58 1015.5
20260905050534 74 331 0.0 2.0 0.00 0.00 0.00 59 1015.5
20260905050033 74 260 0.0 1.0 0.00 0.00 0.00 60 1015.6
20260905045533 73 260 0.0 1.0 0.00 0.00 0.00 59 1015.5
20260905045036 73 261 0.0 1.0 0.00 0.00 0.00 60 1015.5
20260905044534 73 261 0.0 0.0 0.00 0.00 0.00 60 1015.5
20260905044033 73 260 0.0 0.0 0.00 0.00 0.00 60 1015.5
20260905043534 73 261 0.0 1.0 0.00 0.00 0.00 60 1015.5
20260905043033 73 323 0.0 2.0 0.00 0.00 0.00 59 1015.5
20260905042533 74 331 0.0 2.0 0.00 0.00 0.00 59 1015.5
20260905042033 74 325 1.0 1.0 0.00 0.00 0.00 59 1015.4
20260905041533 74 325 0.0 1.0 0.00 0.00 0.00 59 1015.4
20260905041033 74 325 1.0 1.0 0.00 0.00 0.00 60 1015.4
20260905040534 74 325 0.0 1.0 0.00 0.00 0.00 60 1015.4
20260905040033 74 325 1.0 1.0 0.00 0.00 0.00 61 1015.4
20260905035536 74 325 0.0 0.0 0.00 0.00 0.00 61 1015.4
20260905035034 74 325 0.0 0.0 0.00 0.00 0.00 60 1015.4
20260905034533 74 325 0.0 0.0 0.00 0.00 0.00 60 1015.4
20260905034036 74 325 0.0 1.0 0.00 0.00 0.00 60 1015.5
20260905033533 75 325 0.0 1.0 0.00 0.00 0.00 59 1015.5
20260905033033 75 325 0.0 2.0 0.00 0.00 0.00 59 1015.5
20260905032533 75 273 0.0 1.0 0.00 0.00 0.00 59 1015.4
20260905032033 75 258 0.0 1.0 0.00 0.00 0.00 59 1015.4